This demonstration page uses our WeatherBlox Daily Observations layout. Learn more.

39.92423, -83.80882

Hourly Observations for December 27, 2019

Temp ( °F °C ) Dew Point ( °F °C ) Humidity (%) Winds ( mph kmh ) Pressure ( in mb ) Visibility ( mi km ) Precip ( " mm )
12:56 am 00:56 Cloudy 54 12.2 51 10.6 90 90 SSW 7 11 30.12 1020 10 16.0934 0 0
1:56 am 01:56 Mostly Clear 53 11.7 50 10 89 89 SW 7 11 30.12 1020 10 16.0934 0 0
2:56 am 02:56 Cloudy 54 12.2 50 10 87 87 SW 9 15 30.13 1020 10 16.0934 0 0
3:03 am 03:03 Mostly Cloudy 54 12 50 10 88 88 SW 10 17 30.13 1020 10 16.0934 0 0
3:14 am 03:14 Cloudy 54 12 52 11 94 94 SW 9 15 30.13 1020 10 16.0934 0 0
3:35 am 03:35 Cloudy 54 12 50 10 88 88 SSW 8 13 30.13 1020 10 16.0934 0 0
3:56 am 03:56 Cloudy 53 11.7 50 10 89 89 SW 7 11 30.14 1021 10 16.0934 0 0
4:22 am 04:22 Cloudy 54 12 50 10 88 88 SSW 7 11 30.13 1020 10 16.0934 0 0
4:39 am 04:39 Cloudy 54 12 52 11 94 94 SSW 6 9 30.13 1020 10 16.0934 0 0
4:56 am 04:56 Cloudy 53 11.7 51 10.6 93 93 SSW 6 9 30.14 1021 10 16.0934 0 0
5:10 am 05:10 Cloudy 54 12 52 11 94 94 SSW 7 11 30.14 1021 10 16.0934 0 0
5:56 am 05:56 Cloudy 55 12.8 53 11.7 93 93 WSW 12 19 30.16 1021 10 16.0934 0 0
6:53 am 06:53 Cloudy 55 13 54 12 94 94 SW 10 17 30.16 1021 10 16.0934 0 0
6:56 am 06:56 Cloudy 55 12.8 53 11.7 93 93 SW 9 15 30.17 1022 10 16.0934 0 0
7:45 am 07:45 Cloudy 54 12 52 11 94 94 WSW 8 13 30.17 1022 10 16.0934 0 0
7:56 am 07:56 Cloudy 54 12.2 52 11.1 93 93 WSW 9 15 30.19 1022 10 16.0934 0 0
8:23 am 08:23 Cloudy 55 13 54 12 94 94 WSW 12 19 30.19 1022 10 16.0934 0 0
8:56 am 08:56 Cloudy 55 12.8 53 11.7 93 93 SW 9 15 30.2 1023 10 16.0934 0 0
9:15 am 09:15 Cloudy 55 13 54 12 94 94 WSW 10 17 30.2 1023 10 16.0934 0 0
9:56 am 09:56 Cloudy 56 13.3 54 12.2 93 93 W 10 17 30.22 1023 10 16.0934 0 0
10:56 am 10:56 Cloudy 55 12.8 54 12.2 96 96 W 14 22 30.23 1024 10 16.0934 0 0
11:56 am 11:56 Mostly Cloudy 57 13.9 54 12.2 90 90 WSW 12 19 30.21 1023 10 16.0934 0 0
12:30 pm 12:30 Cloudy 57 14 54 12 88 88 WNW 12 19 30.2 1023 10 16.0934 0 0
12:39 pm 12:39 Mostly Cloudy 55 13 54 12 94 94 W 10 17 30.2 1023 10 16.0934 0 0
12:56 pm 12:56 Mostly Cloudy 58 14.4 52 11.1 81 81 W 15 24 30.2 1023 10 16.0934 0 0
1:51 pm 13:51 Mostly Sunny 57 14 48 9 72 72 W 14 22 30.18 1022 10 16.0934 0 0
1:56 pm 13:56 Mostly Sunny 57 13.9 50 10 78 78 W 14 22 30.19 1022 10 16.0934 0 0
2:34 pm 14:34 Mostly Cloudy 57 14 48 9 72 72 W 14 22 30.19 1022 10 16.0934 0 0
2:56 pm 14:56 Partly Cloudy 56 13.3 47 8.3 72 72 W 13 20 30.19 1023 10 16.0934 0 0
3:56 pm 15:56 Sunny 53 11.7 48 8.9 83 83 NW 9 15 30.22 1023 10 16.0934 0 0
4:56 pm 16:56 Sunny 50 10 46 7.8 86 86 NW 6 9 30.23 1024 10 16.0934 0 0
5:56 pm 17:56 Clear 46 7.8 44 6.7 93 93 NW 9 15 30.24 1024 10 16.0934 0 0
6:56 pm 18:56 Clear with Mist and Fog 41 5 41 5 100 100 NNW 6 9 30.26 1025 6 9.65604 0 0
7:56 pm 19:56 Clear with Mist and Fog 39 3.9 39 3.9 100 100 NNW 5 7 30.26 1025 4 6.43736 0 0
8:26 pm 20:26 Mostly Clear with Mist and Fog 37 3 37 3 100 100 Calm 30.29 1026 2.5 4.02335 0 0
8:51 pm 20:51 Mostly Cloudy with Mist and Fog 36 2 36 2 100 100 NNW 8 13 30.3 1026 2 3.21868 0 0
8:54 pm 20:54 Mostly Cloudy with Mist and Fog 37 3 37 3 100 100 NW 8 13 30.29 1026 1 1.60934 0 0
8:56 pm 20:56 Mostly Cloudy with Fog 38 3.3 38 3.3 100 100 NNW 8 13 30.27 1025 0.5 0.80467 0 0
9:06 pm 21:06 Cloudy with Fog 37 3 37 3 100 100 NW 6 9 30.29 1026 0.25 0.402335 0 0
9:56 pm 21:56 Cloudy with Fog 38 3.3 38 3.3 100 100 NW 7 11 30.27 1025 0.25 0.402335 0 0
10:56 pm 22:56 Cloudy with Fog 38 3.3 38 3.3 100 100 WNW 6 9 30.28 1025 0.25 0.402335 0 0
11:56 pm 23:56 Cloudy with Fog 38 3.3 38 3.3 100 100 NNW 7 11 30.28 1026 0.25 0.402335 0 0

Powered by AerisWeather